Погода в Луангнамтха

Лаос     21°00′09″N   101°24′27″E
темп.,
°C
ветер,
м/с
пор.,
м/с
влажн.,
%
обл.,
%
осадки,
мм/ч
давл.,
гПа
погр.,
м
12 августа, пт
пт1201:00+21вюв11100100 4.4 100468
04:00+21в11100100 3.6 100346
07:00+21всв1110099 7.0 100545
10:00+22ююв129688 1.0 1006352
13:00+22ююз1298100 4.1 1005128
16:00+21ююв1199100 2.6 100525
19:00+20ююв1199100 3.6 100725
22:00+20вюв11100100 1.8 100931
13 августа, сб
сб1301:00+20юв01100100 2.7 100850
04:00+20ююв01100100 0.4 100863
07:00+20ююв01100100 0.9 100963
10:00+20ю12100100 0.4 1010185
13:00+22юз1395100 1.5 1008416
16:00+22юз1291100 0.4 1007321
19:00+21ю1198100 0.6 100817
22:00+20ю009996 0.0 101121
14 августа, вс
вс1401:00+19ююв0010099 0.1 101028
04:00+19юз0010076 0.0 100930
07:00+19зюз009885 0.0 101196
10:00+26ююз116783 0.1 10101024
13:00+29ю1256100 0.1 10081416
16:00+28юз1262100 0.1 1005619
19:00+23ююз118228 0.1 100612
22:00+21з00947 0.0 100912
15 августа, пн
пн1501:00+20ю009983 0.0 100913
04:00+19св0010073 4.3 100823
07:00+20ю0010052 8.0 100986
10:00+25ююз117459 0.1 1009694
13:00+27зюз128094 2.4 1006918
16:00+25ю1296100 6.8 1004123
19:00+22юв119891 9.7 100611
22:00+21ю0099100 1.4 100816
16 августа, вт
вт1601:00+20ююв00100100 1.4 100819
04:00+19ююв00100100 0.0 100728
07:00+20ююз0110086 0.0 1008107
10:00+23ю018665 0.1 1009475
13:00+30ююз115578 0.2 10041496
16:00+29ююв126344 0.1 1002834
19:00+23ю009137 0.7 100512
22:00+22ююз0097100 0.0 100713